Weather History for Glendale Luke AFB, AZ

Change the Weather History Date:

Sunday, April 21, 2013

  Actual Average Record
Temperature  
Mean Temperature 75 °F -  
Max Temperature 92 °F 87 °F 105 °F (1989)
Min Temperature 58 °F 51 °F 38 °F (1941)
Cooling Degree Days 10    
Growing Degree Days 25 (Base 50)    
Moisture  
Dew Point 24 °F    
Average Humidity 16    
Maximum Humidity 31    
Minimum Humidity 6    
Precipitation  
Precipitation 0.00 in - - ()
Sea Level Pressure  
Sea Level Pressure 29.90 in    
Wind  
Wind Speed 5 mph (WSW)    
Max Wind Speed 12 mph    
Max Gust Speed -    
Visibility 10 miles    
Events      
Averages and records for this station are not official NWS values.
T = Trace of Precipitation, MM = Missing Value Source: NWS Daily Summary

Daily Weather History Graph

Daily Weather History Graph

Search for Another Location

Airport:

Trip Planner

Search our weather history database for the weather conditions in past years. The results will help you decide how hot, cold, wet, or windy it might be!

Date:

Astronomy

Apr. 21, 2013 Rise Set
Actual Time 5:51 AM MST 7:05 PM MST
Civil Twilight 5:25 AM MST 7:31 PM MST
Nautical Twilight 4:54 AM MST 8:02 PM MST
Astronomical Twilight 4:22 AM MST 8:34 PM MST
Moon 3:05 PM MST (4/21) 3:02 AM MST (4/21)
Length of Visible Light 14h 05m
Length of Day
13h 13m
Waxing Gibbous, 81% of the Moon is Illuminated
Apr 21
Waxing Gibbous
Apr 25
Full
May 2
Last Quarter
May 9
New
May 17
First Quarter

Hourly Weather History & Observations

Time (MST) Temp. Dew Point Humidity Pressure Visibility Wind Dir Wind Speed Gust Speed Precip Events Conditions
12:58 AM 65.5 °F 30.9 °F 27% 29.90 in 10.0 mi NNE 1.2 mph - N/A   Clear
1:58 AM 64.0 °F 27.5 °F 25% 29.89 in 10.0 mi North 4.6 mph - N/A   Clear
2:58 AM 62.6 °F 24.1 °F 23% 29.90 in 10.0 mi NNW 4.6 mph - N/A   Clear
3:58 AM 58.5 °F 27.9 °F 31% 29.91 in 10.0 mi NE 6.9 mph - N/A   Clear
4:58 AM 59.0 °F 22.5 °F 24% 29.91 in 10.0 mi North 9.2 mph - N/A   Clear
5:58 AM 58.3 °F 19.8 °F 22% 29.94 in 10.0 mi NNE 3.5 mph - N/A   Clear
6:58 AM 61.2 °F 18.9 °F 20% 29.96 in 10.0 mi North 3.5 mph - N/A   Clear
7:58 AM 68.4 °F 27.1 °F 21% 29.97 in 10.0 mi North 5.8 mph - N/A   Clear
8:58 AM 74.7 °F 24.4 °F 15% 29.98 in 10.0 mi ENE 2.3 mph - N/A   Clear
9:58 AM 77.9 °F 23.7 °F 13% 29.98 in 10.0 mi Variable 3.5 mph - N/A   Clear
10:58 AM 81.3 °F 25.7 °F 13% 29.98 in 10.0 mi Variable 2.3 mph - N/A   Clear
11:58 AM 84.4 °F 22.6 °F 10% 29.95 in 10.0 mi Calm Calm - N/A   Clear
12:58 PM 88.0 °F 20.1 °F 8% 29.92 in 10.0 mi SSE 4.6 mph - N/A   Clear
1:58 PM 90.3 °F 21.9 °F 8% 29.90 in 10.0 mi SSE 4.6 mph - N/A   Clear
2:58 PM 90.3 °F 21.4 °F 8% 29.87 in 10.0 mi South 11.5 mph - N/A   Clear
3:58 PM 92.3 °F 16.7 °F 6% 29.85 in 10.0 mi SSW 9.2 mph - N/A   Clear
4:58 PM 92.7 °F 17.1 °F 6% 29.84 in 10.0 mi SW 10.4 mph - N/A   Clear
5:58 PM 91.6 °F 19.8 °F 7% 29.83 in 10.0 mi SW 9.2 mph - N/A   Clear
6:58 PM 88.3 °F 20.5 °F 8% 29.83 in 10.0 mi SSW 5.8 mph - N/A   Clear
7:58 PM 82.6 °F 23.5 °F 11% 29.83 in 10.0 mi SSW 5.8 mph - N/A   Clear
8:58 PM 77.5 °F 28.4 °F 16% 29.84 in 10.0 mi WSW 5.8 mph - N/A   Clear
9:58 PM 74.8 °F 27.3 °F 17% 29.85 in 10.0 mi West 3.5 mph - N/A   Clear
10:58 PM 71.1 °F 31.5 °F 23% 29.86 in 10.0 mi West 2.3 mph - N/A   Clear
11:58 PM 72.3 °F 28.4 °F 20% 29.87 in 10.0 mi SE 3.5 mph - N/A   Clear